Vorticity
8 4 4 3 5 8 7 5 5 4 9 11 14 4 8 7 6 6 6 9 6 9 10 10 9 10 9 8 8 10 10 9 10 9 6 10 7 7 5 5 8 6 7
7 1 5 4 5 3 4 5 7 6 6 8 11 -1 9 7 6 6 6 6 6 5 6 6 7 7 8 8 8 8 7 6 10 9 7 6 6 7 6 4 6 4 6
4 8 2 11 7 5 5 5 4 4 6 4 6 8 1 5 6 6 4 5 7 6 5 5 5 7 7 6 7 7 7 7 7 7 6 9 8 7 7 5 8 3 6
10 -3 6 3 6 7 8 9 5 8 6 4 5 6 4 5 7 8 6 5 18 6 6 6 3 4 7 7 9 8 6 7 7 6 5 5 5 4 5 5 6 6 7
10 20 16 14 5 3 9 14 11 15 8 5 5 5 3 3 6 7 7 9 6 -0 7 6 7 6 5 7 5 4 8 5 8 9 7 6 5 5 4 4 5 5 5
6 -6 18 26 -12 12 15 14 9 14 12 17 3 5 10 2 5 5 5 4 6 5 5 7 7 8 8 8 6 6 5 7 10 10 8 7 5 6 7 6 5 4 5
-1 -5 -6 26 16 31 7 8 6 12 -26 -15 2 22 12 13 11 6 1 4 1 3 1 -3 3 4 3 4 3 6 8 9 4 3 5 7 7 6 5 9 9 7 5
-7 -3 -1 29 22 27 -2 28 3 7 -18 -3 6 5 -4 9 -5 6 17 5 5 3 4 6 9 4 5 3 5 6 3 3 5 5 9 6 3 2 8 8 4 7 23
8 3 4 16 12 12 -13 1 27 2 6 4 5 4 -5 9 11 9 32 11 11 10 15 6 10 1 5 8 15 -1 -0 2 2 4 5 5 3 10 9 3 4 9 8
8 6 10 16 -0 20 12 -2 12 22 19 11 6 3 20 6 10 2 5 4 11 8 5 23 10 4 -1 13 16 -2 12 10 8 6 9 4 -8 7 -1 6 10 12 12
52 13 -0 -4 18 14 26 5 14 29 19 8 12 17 15 -3 1 7 19 9 -3 6 9 8 9 6 20 11 14 9 9 13 13 12 9 19 33 33 23 19 13 16 16
12 -31 -16 31 24 -8 -2 23 10 17 10 10 7 11 12 6 4 10 15 14 19 17 15 12 15 14 6 16 15 15 15 15 18 13 22 9 12 15 12 9 8 4 5
10 26 4 35 71 4 -4 34 51 18 11 11 11 6 7 7 8 11 6 9 9 6 7 16 8 9 17 16 13 3 10 17 14 8 6 7 9 3 1 -2 -1 -3 3
8 5 4 -1 -7 -11 8 11 -27 6 24 16 7 5 5 4 1 -0 6 7 5 5 8 12 7 8 8 6 4 6 10 -1 9 3 4 10 7 4 -1 1 -0 1 -2
-0 -3 4 -0 5 9 6 17 8 3 11 5 9 4 4 5 3 1 -3 -3 -2 1 2 4 9 11 8 5 5 5 8 12 8 9 10 5 1 -5 4 1 0 3 0
9 14 3 6 6 7 6 6 5 1 1 3 6 3 3 3 1 -3 -3 1 -1 3 6 6 6 5 6 7 8 9 7 7 9 9 4 -2 -3 0 -0 0 3 3 1
11 11 11 10 10 10 10 9 10 9 7 5 6 1 2 3 5 1 27 10 -4 4 8 8 7 4 6 6 4 3 6 6 5 5 4 -0 -1 -0 1 1 1 -1 -2
12 6 3 1 7 7 6 12 13 10 9 8 9 10 9 13 14 9 10 0 17 6 11 13 7 8 12 3 3 5 9 3 2 3 5 5 5 4 3 2 4 2 2
8 13 13 12 11 15 21 18 14 13 12 16 15 11 9 9 9 12 20 6 7 14 10 8 8 8 3 3 9 -5 1 8 -1 2 6 9 7 12 12 11 8 5 3
19 19 22 26 22 14 9 7 16 14 16 20 15 11 9 18 5 2 12 -2 15 3 -0 4 4 6 2 4 9 -2 14 10 13 6 -5 16 12 -3 0 6 12 3 1
18 20 17 11 15 17 10 11 4 9 11 12 10 17 17 9 15 22 9 8 10 12 12 7 4 12 13 15 6 5 -19 -3 -0 3 16 -1 -1 10 5 -1 15 15 8
20 20 19 19 19 17 19 20 17 14 16 20 22 19 21 21 16 14 12 16 20 18 21 25 26 25 23 18 14 4 9 9 7 17 21 15 18 25 22 21 20 27 35
12 10 11 11 13 13 12 10 9 8 10 7 6 8 9 11 13 19 25 28 26 22 18 18 17 18 19 19 19 18 20 17 19 19 23 27 25 26 31 27 19 13 9
4 6 8 7 3 5 6 10 13 12 15 15 11 10 10 11 14 12 7 7 6 7 8 8 10 12 13 14 14 15 15 17 21 21 24 17 12 18 13 14 13 10 8
6 6 10 15 17 17 21 15 13 10 12 12 10 9 10 11 9 9 12 13 15 16 15 15 14 12 10 9 9 10 11 11 10 9 8 8 7 6 6 6 6 10 11
7 13 17 16 18 16 15 15 15 16 15 14 14 12 13 17 18 15 13 11 10 11 12 12 13 13 13 13 14 14 14 13 11 11 14 12 11 10 9 6 3 5 11
Height
5921 5925 5927 5928 5930 5932 5932 5931 5931 5932 5933 5933 5933 5934 5935 5936 5936 5937 5938 5938 5938 5938 5940 5941 5941 5942 5942 5942 5942 5942 5942 5941 5939 5938 5937 5936 5934 5932 5932 5931 5930 5929 5927
5917 5920 5923 5925 5926 5927 5928 5928 5929 5929 5929 5929 5930 5932 5933 5934 5934 5934 5935 5936 5937 5936 5937 5938 5939 5939 5940 5940 5940 5939 5939 5939 5939 5937 5935 5933 5933 5932 5931 5930 5929 5927 5926
5913 5916 5919 5920 5921 5922 5922 5924 5925 5926 5926 5925 5927 5929 5930 5930 5930 5930 5930 5931 5933 5933 5933 5935 5936 5936 5937 5937 5937 5936 5936 5936 5936 5935 5933 5932 5932 5931 5929 5928 5928 5926 5926
5906 5909 5913 5916 5916 5917 5918 5919 5919 5922 5922 5923 5924 5926 5926 5926 5927 5927 5927 5928 5927 5928 5929 5928 5929 5931 5932 5932 5933 5933 5933 5933 5933 5932 5931 5930 5929 5928 5927 5926 5926 5924 5924
5901 5903 5906 5908 5911 5912 5914 5914 5914 5915 5917 5919 5920 5922 5922 5922 5923 5923 5922 5923 5924 5924 5924 5924 5925 5926 5927 5927 5928 5928 5929 5929 5929 5929 5929 5927 5925 5925 5923 5922 5923 5922 5920
5895 5896 5898 5899 5903 5904 5907 5909 5910 5910 5911 5912 5914 5914 5916 5917 5918 5919 5918 5918 5918 5919 5918 5919 5919 5919 5920 5921 5921 5922 5923 5923 5924 5924 5923 5922 5921 5922 5921 5920 5918 5917 5915
5888 5891 5892 5892 5893 5895 5898 5900 5904 5904 5904 5906 5906 5906 5907 5909 5911 5911 5912 5912 5912 5913 5913 5913 5914 5914 5914 5914 5914 5915 5916 5919 5919 5917 5917 5917 5917 5916 5915 5914 5913 5912 5910
5880 5883 5884 5886 5886 5885 5890 5891 5895 5897 5896 5898 5899 5899 5898 5902 5903 5903 5903 5905 5907 5909 5909 5907 5906 5906 5907 5908 5907 5906 5908 5910 5911 5913 5913 5911 5910 5908 5907 5907 5907 5907 5904
5871 5874 5877 5877 5878 5881 5883 5884 5885 5886 5888 5890 5891 5892 5894 5895 5895 5895 5895 5897 5899 5900 5902 5900 5899 5899 5898 5899 5899 5899 5900 5901 5901 5903 5904 5904 5902 5902 5900 5898 5897 5897 5898
5861 5865 5868 5870 5872 5874 5875 5876 5876 5876 5876 5878 5881 5885 5886 5883 5887 5888 5889 5890 5891 5892 5893 5893 5892 5892 5891 5890 5890 5890 5889 5891 5891 5892 5893 5894 5893 5892 5891 5890 5889 5888 5887
5846 5855 5859 5860 5862 5863 5864 5864 5864 5864 5866 5870 5874 5876 5877 5877 5879 5879 5880 5881 5882 5882 5882 5883 5884 5884 5883 5882 5882 5882 5881 5881 5880 5880 5881 5881 5879 5880 5881 5881 5881 5879 5878
5841 5841 5844 5844 5846 5854 5851 5853 5853 5854 5858 5863 5867 5869 5870 5871 5872 5873 5875 5875 5874 5873 5872 5873 5874 5875 5874 5873 5873 5872 5872 5872 5870 5870 5872 5872 5871 5871 5874 5874 5872 5872 5872
5836 5837 5840 5842 5841 5843 5844 5846 5848 5851 5853 5855 5858 5861 5862 5864 5866 5866 5866 5867 5867 5866 5865 5864 5863 5863 5864 5864 5864 5864 5864 5863 5863 5864 5864 5864 5864 5866 5866 5866 5864 5862 5862
5831 5830 5832 5834 5836 5838 5840 5842 5842 5845 5847 5849 5852 5854 5854 5855 5856 5857 5858 5858 5858 5859 5858 5857 5856 5855 5855 5855 5855 5855 5855 5854 5854 5855 5857 5857 5856 5855 5855 5855 5856 5855 5853
5821 5824 5824 5827 5830 5832 5833 5835 5837 5838 5840 5842 5843 5844 5845 5845 5847 5847 5847 5848 5848 5848 5847 5847 5847 5847 5846 5845 5845 5845 5844 5844 5845 5845 5845 5845 5845 5843 5842 5843 5842 5841 5839
5809 5813 5816 5817 5819 5823 5826 5828 5829 5830 5830 5832 5833 5834 5834 5834 5835 5836 5836 5836 5838 5836 5836 5836 5835 5833 5834 5834 5834 5834 5835 5833 5834 5834 5833 5832 5832 5831 5830 5829 5827 5826 5825
5799 5802 5805 5805 5808 5811 5813 5814 5815 5816 5819 5819 5820 5822 5822 5821 5821 5821 5822 5823 5823 5824 5823 5821 5821 5820 5818 5819 5820 5818 5819 5819 5819 5819 5820 5819 5818 5816 5815 5814 5813 5812 5810
5787 5788 5790 5790 5792 5794 5797 5800 5802 5802 5803 5804 5806 5806 5806 5806 5806 5807 5807 5807 5807 5806 5805 5804 5804 5804 5805 5805 5805 5804 5804 5804 5803 5803 5802 5801 5801 5799 5798 5797 5795 5794 5792
5775 5776 5778 5779 5780 5781 5783 5784 5785 5786 5787 5788 5788 5789 5789 5790 5790 5791 5792 5791 5790 5790 5788 5787 5786 5787 5788 5789 5789 5788 5787 5787 5786 5785 5785 5783 5782 5781 5780 5779 5777 5774 5772
5765 5765 5765 5766 5766 5767 5769 5769 5769 5769 5769 5771 5770 5770 5770 5772 5772 5773 5775 5774 5773 5772 5771 5770 5769 5770 5771 5772 5771 5768 5767 5766 5766 5766 5765 5763 5761 5760 5759 5758 5756 5754 5752
5757 5757 5758 5758 5757 5756 5756 5755 5755 5755 5755 5755 5755 5754 5754 5752 5753 5754 5755 5755 5753 5753 5751 5750 5750 5750 5751 5751 5749 5748 5747 5747 5747 5746 5744 5741 5740 5739 5738 5736 5735 5731 5729
5749 5749 5748 5748 5747 5747 5745 5744 5743 5742 5740 5739 5738 5737 5737 5736 5736 5735 5736 5735 5733 5731 5731 5730 5730 5730 5730 5730 5730 5728 5726 5726 5725 5723 5720 5719 5718 5716 5715 5714 5712 5711 5708
5743 5741 5740 5738 5737 5735 5734 5732 5731 5728 5727 5726 5726 5724 5722 5721 5720 5719 5717 5716 5715 5713 5712 5711 5711 5711 5710 5708 5706 5706 5706 5705 5704 5702 5700 5699 5698 5697 5695 5694 5693 5692 5690
5733 5732 5730 5728 5727 5725 5723 5721 5718 5716 5715 5713 5711 5709 5707 5705 5704 5703 5702 5701 5699 5698 5697 5696 5696 5695 5692 5691 5691 5690 5689 5687 5686 5684 5683 5682 5681 5680 5678 5677 5676 5675 5674
5722 5720 5718 5716 5713 5710 5708 5706 5704 5701 5699 5698 5696 5694 5692 5691 5689 5687 5687 5686 5684 5682 5681 5680 5679 5678 5676 5675 5674 5674 5674 5672 5672 5670 5669 5668 5667 5666 5665 5664 5662 5661 5659
5708 5706 5704 5702 5700 5697 5695 5693 5691 5689 5686 5683 5680 5678 5677 5675 5673 5672 5670 5669 5667 5665 5664 5663 5663 5662 5661 5659 5658 5657 5656 5656 5656 5656 5655 5654 5653 5652 5650 5648 5647 5645 5643